Regional Weather Roundup
Issued by NWS

Home | Current Version | Previous Version | Graphics & Text | Print | Product List | Glossary On
Versions: 1 2 3 4 5 6 7 8 9 10 11 12 13 14 15 16 17 18 19 20 21 22 23 24 25 26 27 28 29 30 31 32 33 34 35 36 37 38 39 40 41 42 43 44 45 46 47 48 49 50
491
ASUS43 KBIS 280210
RWRND

NORTH DAKOTA REGIONAL WEATHER ROUNDUP
NATIONAL WEATHER SERVICE BISMARCK ND
900 PM CDT WED JUL 27 2016

NOTE: "FAIR" INDICATES FEW OR NO CLOUDS BELOW 12,000 FEET WITH NO
SIGNIFICANT WEATHER AND/OR OBSTRUCTIONS TO VISIBILITY.


NDZ001>003-009>011-017-280300-
NORTHWEST NORTH DAKOTA

CITY           SKY/WX    TMP DP  RH WIND       PRES   REMARKS
WILLISTON      MOCLDY    68  58  70 E5        30.13S
MINOT          CLOUDY    71  60  68 NE6       30.12S
MINOT AFB      PTCLDY    71  57  61 NE7       30.11S
$$

NDZ018>021-031>035-040>046-280300-
SOUTHWEST NORTH DAKOTA

CITY           SKY/WX    TMP DP  RH WIND       PRES   REMARKS
BISMARCK       MOCLDY    72  60  66 E7        30.11R
DICKINSON      PTCLDY    66  59  78 NE12      30.11R
GARRISON         N/A     69  60  73 E6        30.11F
HETTINGER ARPT CLEAR     71  59  65 NE6       30.13R
$$

NDZ004>008-012>016-024-026-027-054-280300-
NORTHEAST NORTH DAKOTA

CITY           SKY/WX    TMP DP  RH WIND       PRES   REMARKS
GRAND FORKS    CLOUDY    71  58  63 N12       30.06R
GRND FRKS AFB  PTCLDY    69  58  68 N10       30.08S
DEVILS LAKE    PTCLDY    65  58  78 NE6       30.12S
$$

NDZ022-023-025-028>030-036>039-047>053-280300-
SOUTHEAST NORTH DAKOTA

CITY           SKY/WX    TMP DP  RH WIND       PRES   REMARKS
FARGO          CLOUDY    71  60  68 N14       30.03R
JAMESTOWN      CLOUDY    67  60  78 N5        30.10R
$$





USA.gov is the U.S. government's official web portal to all federal, state and local government web resources and services.